DH5RAE-11 Weather Reports


time (UTC)temp
C
wind
direction
speed
KPH
gust
KPH
rain 1hr
cm
rain 24hr
cm
rain mn
cm
humidity
%
barometer
mb
20260903073244 18 22 0.0 0.0 0.00 0.00 0.00 79 1025.1
20260903072027 18 22 0.0 0.0 0.00 0.00 0.00 81 1025.2
20260903071027 14 22 0.0 0.0 0.00 0.00 0.00 88 1025.2
20260903065549 14 22 0.0 0.0 0.00 0.00 0.00 89 1025.2
20260903064547 14 22 0.0 0.0 0.00 0.00 0.00 90 1025.0
20260903063220 12 45 0.0 0.0 0.00 0.00 0.00 90 1025.0
20260903062220 12 45 0.0 0.0 0.00 0.00 0.00 89 1025.1
20260903061220 12 22 0.0 0.0 0.00 0.00 0.00 89 1024.9
20260903060219 11 22 0.0 0.0 0.00 0.00 0.00 89 1024.9
20260903055219 11 22 0.0 0.0 0.00 0.00 0.00 88 1025.0
20260903054000 11 22 0.0 0.0 0.00 0.00 0.00 88 1024.8
20260903052849 11 22 0.0 0.0 0.00 0.00 0.00 88 1024.6
20260903051739 11 22 0.0 0.0 0.00 0.00 0.00 88 1024.6
20260903050738 12 22 0.0 0.0 0.00 0.00 0.00 88 1024.7
20260903045628 12 22 0.0 0.0 0.00 0.00 0.00 88 1024.7
20260903044411 12 0 0.0 0.0 0.00 0.00 0.00 88 1024.7
20260903043043 12 45 0.0 0.0 0.00 0.00 0.00 88 1024.6
20260903041932 12 45 0.0 0.0 0.00 0.00 0.00 88 1024.5
20260903040606 12 45 0.0 0.0 0.00 0.00 0.00 88 1024.5
20260903034803 13 45 0.0 0.0 0.00 0.00 0.00 88 1024.3
20260903033803 13 45 0.0 0.0 0.00 0.00 0.00 88 1024.3
20260903032802 13 45 0.0 0.0 0.00 0.00 0.00 88 1024.3
20260903031802 13 45 0.0 0.0 0.00 0.00 0.00 88 1024.3
20260903030001 13 45 0.0 0.0 0.00 0.00 0.00 88 1024.2
20260903025001 13 22 0.0 0.0 0.00 0.00 0.00 88 1024.2
20260903024001 13 22 0.0 0.0 0.00 0.00 0.00 88 1024.2
20260903023000 13 45 0.0 0.0 0.00 0.00 0.00 88 1024.2
20260903022000 13 45 0.0 0.0 0.00 0.00 0.00 88 1024.1
20260903021000 13 0 0.0 0.0 0.00 0.00 0.00 88 1024.1
20260903020000 13 22 0.0 0.0 0.00 0.00 0.00 87 1024.1
20260903014959 13 45 0.0 0.0 0.00 0.00 0.00 87 1024.2
20260903013959 13 22 0.0 0.0 0.00 0.00 0.00 87 1024.1
20260903012959 13 22 0.0 0.0 0.00 0.00 0.00 87 1024.1
20260903011959 13 45 0.0 0.0 0.00 0.00 0.00 87 1024.1
20260903010959 13 45 0.0 0.0 0.00 0.00 0.00 87 1024.1
20260903005958 13 45 0.0 0.0 0.00 0.00 0.00 87 1024.1
20260903004157 13 45 0.0 0.0 0.00 0.00 0.00 87 1024.2
20260903003157 13 45 0.0 0.0 0.00 0.00 0.00 87 1024.1
20260903002156 13 45 0.0 0.0 0.00 0.00 0.00 87 1024.0
20260903001156 13 0 0.0 0.0 0.00 0.00 0.00 87 1024.1
20260903000156 13 45 0.0 0.0 0.00 0.00 0.00 87 1024.2
20260902235156 13 45 0.0 0.0 0.00 0.00 0.00 87 1024.2
20260902234155 13 45 0.0 0.0 0.00 0.00 0.00 86 1024.3
20260902233155 13 45 0.0 0.0 0.00 0.00 0.00 86 1024.4
20260902232155 13 45 0.0 0.0 0.00 0.00 0.00 86 1024.5
20260902231154 13 45 0.0 0.0 0.00 0.00 0.00 86 1024.6
20260902230154 13 45 0.0 0.0 0.00 0.00 0.00 86 1024.6
20260902225154 14 45 0.0 0.0 0.00 0.00 0.00 86 1024.5
20260902224154 14 45 0.0 0.0 0.00 0.00 0.00 86 1024.6
20260902223153 14 45 0.0 0.0 0.00 0.00 0.00 86 1024.6
20260902221934 14 45 0.0 0.0 0.00 0.00 0.00 86 1024.5
20260902220348 14 45 0.0 0.0 0.00 0.00 0.00 86 1024.4
20260902215129 14 45 0.0 0.0 0.00 0.00 0.00 86 1024.3
20260902214019 14 45 0.0 0.0 0.00 0.00 0.00 86 1024.3
20260902213018 14 45 0.0 0.0 0.00 0.00 0.00 86 1024.3
20260902211907 14 45 0.0 0.0 0.00 0.00 0.00 86 1024.2
20260902210757 14 45 0.0 0.0 0.00 0.00 0.00 85 1024.2
20260902205540 14 45 0.0 0.0 0.00 0.00 0.00 85 1024.1
20260902204540 14 22 0.0 0.0 0.00 0.00 0.00 85 1024.2
20260902203320 14 22 0.0 0.0 0.00 0.00 0.00 85 1024.2
20260902201952 14 22 0.0 0.0 0.00 0.00 0.00 84 1024.2
20260902200626 14 22 0.0 0.0 0.00 0.00 0.00 84 1024.2
20260902195406 14 45 0.0 0.0 0.00 0.00 0.00 84 1024.1
20260902194405 14 22 0.0 0.0 0.00 0.00 0.00 83 1024.1
20260902193405 14 22 0.0 0.0 0.00 0.00 0.00 83 1024.2
20260902192255 14 45 0.0 0.0 0.00 0.00 0.00 83 1024.1
20260902191254 14 45 0.0 0.0 0.00 0.00 0.00 83 1024.1
20260902190128 14 22 0.0 0.0 0.00 0.00 0.00 82 1024.1
20260902185017 15 22 0.0 0.0 0.00 0.00 0.00 82 1024.0
20260902184017 15 22 0.0 0.0 0.00 0.00 0.00 81 1023.8
20260902182800 15 22 0.0 0.0 0.00 0.00 0.00 80 1023.8
20260902181800 15 22 0.0 0.0 0.00 0.00 0.00 79 1023.9
20260902180800 16 45 0.0 0.0 0.00 0.00 0.00 78 1023.8
20260902175759 16 45 0.0 0.0 0.00 0.00 0.00 77 1023.7
20260902174430 17 0 0.0 0.0 0.00 0.00 0.00 75 1023.6
20260902173319 17 45 0.0 0.0 0.00 0.00 0.00 74 1023.6
20260902172318 18 22 0.0 0.0 0.00 0.00 0.00 73 1023.7
20260902171208 18 22 0.0 0.0 0.00 0.00 0.00 71 1023.6
20260902165951 19 22 0.0 0.0 0.00 0.00 0.00 69 1023.6
20260902164951 19 22 0.0 0.0 0.00 0.00 0.00 68 1023.9
20260902163950 20 45 0.0 0.0 0.00 0.00 0.00 66 1023.6
20260902162622 20 45 0.0 0.0 0.00 0.00 0.00 65 1023.5
20260902161620 20 45 0.0 0.0 0.00 0.00 0.00 65 1023.5
20260902160619 20 45 0.0 0.0 0.00 0.00 0.00 64 1023.5
20260902155509 20 45 0.0 0.0 0.00 0.00 0.00 63 1023.5
20260902154507 20 45 0.0 0.0 0.00 0.00 0.00 62 1023.5
20260902153358 20 45 0.0 0.0 0.00 0.00 0.00 62 1023.5
20260902152357 20 45 0.0 0.0 0.00 0.00 0.00 63 1023.7
20260902151140 20 45 0.0 0.0 0.00 0.00 0.00 62 1023.7
20260902150140 21 22 0.0 0.0 0.00 0.00 0.00 62 1023.7
20260902145140 21 22 0.0 0.0 0.00 0.00 0.00 61 1023.7
20260902144139 21 22 0.0 0.0 0.00 0.00 0.00 60 1023.7
20260902142700 21 45 0.0 0.0 0.00 0.00 0.00 58 1023.7
20260902141334 22 45 0.0 0.0 0.00 0.00 0.00 56 1023.8
20260902140005 22 22 0.0 0.0 0.00 0.00 0.00 56 1023.8
20260902133725 23 22 0.0 0.0 0.00 0.00 0.00 55 1024.0
20260902132725 23 45 3.2 0.0 0.00 0.00 0.00 57 1024.1
20260902131356 23 45 0.0 0.0 0.00 0.00 0.00 56 1024.1
20260902125920 22 45 0.0 0.0 0.00 0.00 0.00 57 1024.3
20260902124700 22 22 0.0 0.0 0.00 0.00 0.00 58 1024.4
20260902123440 22 45 0.0 0.0 0.00 0.00 0.00 56 1024.5
20260902122438 22 45 0.0 0.0 0.00 0.00 0.00 56 1024.6
20260902121437 22 22 0.0 0.0 0.00 0.00 0.00 56 1024.7
20260902120435 22 22 0.0 0.0 0.00 0.00 0.00 57 1024.7
20260902115434 22 22 0.0 0.0 0.00 0.00 0.00 57 1024.7
20260902114432 22 45 6.4 0.0 0.00 0.00 0.00 58 1024.7
20260902112739 22 22 0.0 0.0 0.00 0.00 0.00 61 1024.9
20260902111738 22 22 0.0 0.0 0.00 0.00 0.00 61 1024.9
20260902110303 22 22 0.0 0.0 0.00 0.00 0.00 62 1025.0
20260902105306 22 22 0.0 0.0 0.00 0.00 0.00 62 1025.0
20260902104302 21 22 0.0 0.0 0.00 0.00 0.00 62 1025.0
20260902103302 21 22 0.0 0.0 0.00 0.00 0.00 65 1025.1
20260902101933 21 22 0.0 0.0 0.00 0.00 0.00 64 1025.3
20260902100932 21 22 0.0 0.0 0.00 0.00 0.00 64 1025.2
20260902095457 21 45 0.0 0.0 0.00 0.00 0.00 61 1025.2
20260902094457 21 22 0.0 0.0 0.00 0.00 0.00 62 1025.3
20260902093456 21 45 6.4 0.0 0.00 0.00 0.00 63 1025.3
20260902092456 21 22 0.0 0.0 0.00 0.00 0.00 63 1025.2
20260902085145 21 45 0.0 0.0 0.00 0.00 0.00 65 1025.1
20260902083557 20 22 3.2 0.0 0.00 0.00 0.00 66 1025.1
20260902082340 20 45 0.0 0.0 0.00 0.00 0.00 68 1025.1
20260902081340 18 45 0.0 0.0 0.00 0.00 0.00 71 1025.1
20260902080119 18 22 0.0 0.0 0.00 0.00 0.00 75 1025.1
20260902074651 18 45 0.0 0.0 0.00 0.00 0.00 77 1025.1